Historique des stations

Station météo de Chailles

Altitude de la station : 86 m







Données météorologiques pour le 28/01/2022
Date
Heure
Températures Humidité Point de rosée Vitesse
du vent
Direction Rafales Windchill Pression Pluviométrie
Cumul
Date
Heure
Températures Humidité Point de rosée Vitesse
du vent
Direction Rafales Windchill Pression Pluviométrie
Cumul
28/01/2022 16:285.9 °C96 %5.4 °C2 km/hSSE6 km/h5.91038 hPa0.2 mm
28/01/2022 16:235.9 °C96 %5.3 °C2 km/hSSE8 km/h5.91038 hPa0.2 mm
28/01/2022 16:135.9 °C96 %5.4 °C6 km/hSSE8 km/h4.71038 hPa0.2 mm
28/01/2022 16:085.9 °C96 %5.4 °C6 km/hS8 km/h4.71038 hPa0.2 mm
28/01/2022 15:586.0 °C96 %5.4 °C5 km/hS8 km/h5.31038 hPa0.2 mm
28/01/2022 15:536.1 °C96 %5.5 °C3 km/hSSE6 km/h6.11038 hPa0.2 mm
28/01/2022 15:436.1 °C97 %5.6 °C3 km/hSSE8 km/h6.11038 hPa0.2 mm
28/01/2022 15:386.1 °C98 %5.8 °C2 km/hSE6 km/h5.41038 hPa0.2 mm
28/01/2022 15:286.1 °C98 %5.8 °C5 km/hSSO8 km/h5.41038 hPa0.2 mm
28/01/2022 15:236.0 °C98 %5.7 °C5 km/hSSO8 km/h5.31038 hPa0.2 mm
28/01/2022 15:136.0 °C99 %5.9 °C6 km/hSSE10 km/h4.81038 hPa0.2 mm
28/01/2022 15:086.0 °C99 %5.9 °C3 km/hSE11 km/h4.81038 hPa0.2 mm
28/01/2022 14:586.1 °C99 %5.9 °C6 km/hSE11 km/h4.81038 hPa0.2 mm
28/01/2022 14:536.1 °C99 %5.9 °C8 km/hSSE11 km/h5.41038 hPa0.2 mm
28/01/2022 14:436.0 °C99 %5.9 °C6 km/hS11 km/h4.81038 hPa0.2 mm
28/01/2022 14:385.9 °C99 %5.8 °C10 km/hSSE11 km/h4.71038 hPa0.2 mm
28/01/2022 14:285.8 °C100 %5.8 °C6 km/hSSE11 km/h4.61038 hPa0.2 mm
28/01/2022 14:235.8 °C100 %5.8 °C10 km/hSSE10 km/h5.11038 hPa0.2 mm
28/01/2022 14:135.7 °C100 %5.7 °C5 km/hS11 km/h5.01039 hPa0.2 mm
28/01/2022 14:085.7 °C100 %5.7 °C8 km/hSE11 km/h4.41038 hPa0.2 mm
28/01/2022 13:585.7 °C100 %5.7 °C6 km/hSSE11 km/h4.31038 hPa0.2 mm
28/01/2022 13:535.6 °C100 %5.6 °C10 km/hSSE11 km/h4.21039 hPa0.2 mm
28/01/2022 13:435.7 °C100 %5.7 °C6 km/hSE11 km/h4.31039 hPa0.2 mm
28/01/2022 13:385.4 °C100 %5.4 °C2 km/hSSE10 km/h4.71039 hPa0.2 mm
28/01/2022 13:285.3 °C100 %5.3 °C5 km/hSE8 km/h4.51039 hPa0.2 mm
28/01/2022 13:235.2 °C100 %5.2 °C3 km/hSE8 km/h5.11039 hPa0.2 mm
28/01/2022 13:135.2 °C100 %5.2 °C3 km/hSE8 km/h5.11039 hPa0.2 mm
28/01/2022 13:085.1 °C100 %5.1 °C3 km/hSE8 km/h5.11039 hPa0.2 mm
28/01/2022 12:585.0 °C100 %5.0 °C3 km/hSE8 km/h4.91039 hPa0.2 mm
28/01/2022 12:534.9 °C100 %4.9 °C6 km/hSE8 km/h4.91039 hPa0.2 mm
28/01/2022 12:434.8 °C100 %4.8 °C3 km/hSSE8 km/h4.81039 hPa0.2 mm
28/01/2022 12:384.8 °C100 %4.8 °C6 km/hSSE8 km/h4.01039 hPa0.2 mm
28/01/2022 12:284.8 °C100 %4.8 °C3 km/hSSE8 km/h4.71039 hPa0.2 mm
28/01/2022 12:234.8 °C100 %4.8 °C6 km/hSSE8 km/h4.71039 hPa0.2 mm
28/01/2022 12:134.6 °C100 %4.6 °C5 km/hSSE8 km/h3.71039 hPa0.2 mm
28/01/2022 12:084.6 °C100 %4.6 °C6 km/hSE8 km/h3.71039 hPa0.2 mm
28/01/2022 11:584.5 °C100 %4.5 °C3 km/hSE8 km/h4.41039 hPa0.2 mm
28/01/2022 11:534.5 °C100 %4.5 °C6 km/hSE6 km/h4.41039 hPa0.2 mm
28/01/2022 11:434.3 °C100 %4.3 °C2 km/hSE3 km/h4.31039 hPa0.2 mm
28/01/2022 11:384.2 °C100 %4.2 °C2 km/hSE3 km/h4.21039 hPa0.2 mm
28/01/2022 11:284.2 °C100 %4.2 °C2 km/hSE3 km/h4.21039 hPa0.2 mm
28/01/2022 11:234.1 °C100 %4.1 °C3 km/hSE3 km/h4.11039 hPa0.2 mm
28/01/2022 11:133.9 °C100 %3.9 °C-SE2 km/h3.91039 hPa0.2 mm
28/01/2022 11:083.8 °C100 %3.8 °C-SE2 km/h3.81039 hPa0.2 mm
28/01/2022 10:583.8 °C100 %3.8 °C-SE2 km/h3.81039 hPa0.2 mm
28/01/2022 10:533.8 °C100 %3.8 °C-SE3 km/h3.81039 hPa0.2 mm
28/01/2022 10:433.7 °C100 %3.7 °C2 km/hSE3 km/h3.71039 hPa0.2 mm
28/01/2022 10:383.6 °C99 %3.5 °C-SE3 km/h3.61039 hPa0.2 mm
28/01/2022 10:283.6 °C100 %3.6 °C-SE3 km/h3.61039 hPa0.2 mm
28/01/2022 10:233.6 °C100 %3.6 °C-SE6 km/h3.61039 hPa0.2 mm
28/01/2022 10:133.7 °C100 %3.7 °C3 km/hSE6 km/h3.41039 hPa0.2 mm
28/01/2022 10:083.6 °C100 %3.6 °C6 km/hSE6 km/h3.31039 hPa0.2 mm
28/01/2022 09:583.4 °C100 %3.4 °C3 km/hSE8 km/h3.21038 hPa0.2 mm
28/01/2022 09:533.4 °C100 %3.4 °C3 km/hSE6 km/h3.21038 hPa0.2 mm
28/01/2022 09:433.4 °C99 %3.2 °C3 km/hSE6 km/h3.21038 hPa0.2 mm
28/01/2022 09:383.3 °C99 %3.2 °C2 km/hENE5 km/h3.11038 hPa0.2 mm
28/01/2022 09:283.2 °C99 %3.0 °C-ENE3 km/h3.21038 hPa0.2 mm
28/01/2022 09:233.2 °C99 %3.1 °C-ENE2 km/h3.21038 hPa0.2 mm
28/01/2022 09:133.2 °C99 %3.1 °C---3.21038 hPa0.2 mm
28/01/2022 09:083.2 °C99 %3.1 °C---3.21038 hPa0.2 mm
28/01/2022 08:583.1 °C99 %3.0 °C-ENE3 km/h3.11038 hPa0.2 mm
28/01/2022 08:533.1 °C99 %2.9 °C-ENE2 km/h3.11038 hPa0.2 mm
28/01/2022 08:433.2 °C99 %3.0 °C2 km/hENE5 km/h3.21038 hPa0.2 mm
28/01/2022 08:383.2 °C99 %3.0 °C2 km/hENE8 km/h2.91038 hPa0.2 mm
28/01/2022 08:283.2 °C99 %3.0 °C2 km/hENE6 km/h3.21038 hPa0.2 mm
28/01/2022 08:233.2 °C99 %3.0 °C-O3 km/h3.21038 hPa0.2 mm
28/01/2022 08:133.1 °C99 %3.0 °C3 km/hO6 km/h2.81037 hPa0.2 mm
28/01/2022 08:083.1 °C99 %3.0 °C3 km/hSSO6 km/h2.11037 hPa0.2 mm
28/01/2022 07:583.1 °C99 %3.0 °C2 km/hO3 km/h3.11037 hPa0.2 mm
28/01/2022 07:533.1 °C99 %3.0 °C3 km/hOSO3 km/h3.11037 hPa0.2 mm
28/01/2022 07:433.1 °C99 %2.9 °C2 km/hO3 km/h3.11037 hPa0.2 mm
28/01/2022 07:383.1 °C99 %2.9 °C2 km/hOSO3 km/h3.11037 hPa0.2 mm
28/01/2022 07:283.1 °C99 %2.9 °C2 km/hO3 km/h3.11037 hPa0.2 mm
28/01/2022 07:233.1 °C99 %2.9 °C2 km/hOSO2 km/h3.11037 hPa0.2 mm
28/01/2022 07:133.0 °C99 %2.9 °C-O2 km/h3.01037 hPa0.2 mm
28/01/2022 07:083.1 °C99 %2.9 °C-OSO2 km/h3.11037 hPa0.2 mm
28/01/2022 06:582.9 °C99 %2.8 °C2 km/hO5 km/h2.91037 hPa0.2 mm
28/01/2022 06:532.9 °C99 %2.8 °C2 km/hOSO6 km/h2.71036 hPa0.2 mm
28/01/2022 06:432.9 °C99 %2.8 °C3 km/hO6 km/h2.71036 hPa0.2 mm
28/01/2022 06:382.9 °C99 %2.8 °C5 km/hO8 km/h1.81036 hPa0.2 mm
28/01/2022 06:282.9 °C99 %2.8 °C3 km/hSO6 km/h2.71036 hPa0.2 mm
28/01/2022 06:232.9 °C99 %2.8 °C3 km/hSO6 km/h2.71036 hPa0.2 mm
28/01/2022 06:132.9 °C99 %2.8 °C3 km/hSO6 km/h2.71036 hPa0.2 mm
28/01/2022 06:082.9 °C99 %2.8 °C5 km/hOSO6 km/h2.71036 hPa0.2 mm
28/01/2022 05:582.9 °C99 %2.7 °C3 km/hOSO6 km/h2.61037 hPa0.2 mm
28/01/2022 05:532.9 °C99 %2.7 °C5 km/hOSO6 km/h2.61037 hPa0.2 mm
28/01/2022 05:432.9 °C99 %2.8 °C3 km/hOSO6 km/h2.71037 hPa0.2 mm
28/01/2022 05:382.9 °C99 %2.7 °C5 km/hOSO6 km/h2.61036 hPa0.2 mm
28/01/2022 05:282.8 °C99 %2.7 °C2 km/hOSO5 km/h2.81036 hPa0.2 mm
28/01/2022 05:232.9 °C99 %2.7 °C2 km/hOSO5 km/h2.61036 hPa0.2 mm
28/01/2022 05:132.8 °C99 %2.7 °C3 km/hOSO8 km/h2.61036 hPa0.0 mm
28/01/2022 05:082.9 °C99 %2.7 °C3 km/hOSO8 km/h1.81036 hPa0.0 mm
28/01/2022 04:582.8 °C99 %2.7 °C3 km/hSO6 km/h2.61036 hPa0.0 mm
28/01/2022 04:532.9 °C99 %2.7 °C5 km/hSO6 km/h1.81036 hPa0.0 mm
28/01/2022 04:432.8 °C99 %2.7 °C3 km/hSO8 km/h2.61036 hPa0.0 mm
28/01/2022 04:382.9 °C99 %2.7 °C8 km/hSO8 km/h2.61036 hPa0.0 mm
28/01/2022 04:282.8 °C99 %2.7 °C2 km/hSO5 km/h2.81036 hPa0.0 mm
28/01/2022 04:232.8 °C99 %2.7 °C3 km/hSO5 km/h2.81036 hPa0.0 mm
28/01/2022 04:132.8 °C99 %2.7 °C3 km/hSO5 km/h2.61036 hPa0.0 mm
28/01/2022 04:082.8 °C99 %2.7 °C3 km/hSO5 km/h2.61036 hPa0.0 mm
28/01/2022 03:582.8 °C99 %2.7 °C3 km/hSO5 km/h2.61036 hPa0.0 mm
28/01/2022 03:532.8 °C99 %2.7 °C3 km/hSO6 km/h2.61036 hPa0.0 mm
28/01/2022 03:432.8 °C98 %2.5 °C3 km/hSO5 km/h2.51036 hPa0.0 mm
28/01/2022 03:382.8 °C99 %2.7 °C2 km/hSO6 km/h2.61036 hPa0.0 mm
28/01/2022 03:282.8 °C99 %2.6 °C2 km/hSO5 km/h2.81036 hPa0.0 mm
28/01/2022 03:232.8 °C98 %2.5 °C2 km/hSO5 km/h2.81036 hPa0.0 mm
28/01/2022 03:132.8 °C98 %2.5 °C3 km/hSO5 km/h2.51036 hPa0.0 mm
28/01/2022 03:082.8 °C98 %2.5 °C3 km/hSO5 km/h2.51036 hPa0.0 mm
28/01/2022 02:582.7 °C98 %2.4 °C3 km/hSO6 km/h2.41036 hPa0.0 mm
28/01/2022 02:532.7 °C98 %2.4 °C3 km/hSO6 km/h2.41036 hPa0.0 mm
28/01/2022 02:432.7 °C98 %2.4 °C5 km/hSO6 km/h1.61036 hPa0.0 mm
28/01/2022 02:382.7 °C98 %2.4 °C3 km/hSO10 km/h1.51036 hPa0.0 mm
28/01/2022 02:282.7 °C98 %2.4 °C6 km/hOSO10 km/h0.91036 hPa0.0 mm
28/01/2022 02:232.7 °C98 %2.4 °C6 km/hSO10 km/h1.51036 hPa0.0 mm
28/01/2022 02:132.6 °C98 %2.3 °C5 km/hOSO10 km/h1.41036 hPa0.0 mm
28/01/2022 02:082.6 °C98 %2.3 °C6 km/hOSO10 km/h1.41036 hPa0.0 mm
28/01/2022 01:582.6 °C98 %2.3 °C5 km/hOSO8 km/h1.41036 hPa0.0 mm
28/01/2022 01:532.6 °C98 %2.3 °C5 km/hSO8 km/h1.41036 hPa0.0 mm
28/01/2022 01:432.6 °C98 %2.3 °C5 km/hSO8 km/h1.41036 hPa0.0 mm
28/01/2022 01:382.6 °C98 %2.3 °C6 km/hOSO8 km/h1.41036 hPa0.0 mm
28/01/2022 01:282.6 °C98 %2.3 °C5 km/hOSO8 km/h1.41036 hPa0.0 mm
28/01/2022 01:232.6 °C98 %2.3 °C3 km/hSSO10 km/h1.41036 hPa0.0 mm
28/01/2022 01:182.6 °C98 %2.3 °C5 km/hOSO10 km/h1.41036 hPa0.0 mm
28/01/2022 01:082.5 °C98 %2.2 °C5 km/hSO8 km/h2.21036 hPa0.0 mm
28/01/2022 01:032.5 °C98 %2.2 °C5 km/hSO10 km/h1.31036 hPa0.0 mm
28/01/2022 00:532.5 °C98 %2.2 °C5 km/hSO8 km/h1.31036 hPa0.0 mm
28/01/2022 00:482.5 °C98 %2.2 °C5 km/hSO10 km/h1.31036 hPa0.0 mm
28/01/2022 00:382.5 °C98 %2.2 °C6 km/hSO10 km/h1.31036 hPa0.0 mm
28/01/2022 00:282.4 °C97 %2.0 °C5 km/hOSO10 km/h1.31036 hPa0.0 mm
28/01/2022 00:232.4 °C97 %2.0 °C6 km/hOSO10 km/h2.11036 hPa0.0 mm
28/01/2022 00:132.4 °C97 %2.0 °C3 km/hSO10 km/h2.11036 hPa0.0 mm
28/01/2022 00:082.4 °C97 %2.0 °C3 km/h--1.21036 hPa0.0 mm


Minima :

Température : 2.4 °C
Humidité : 96 %
Point de rosée : 2.0 °C
Vent moyen : 2 km/h
Windchill : 0.9
Pression atm. : 1036 hPa
Maxima :

Température : 6.1 °C
Humidité : 100 %
Point de rosée : 5.9 °C
Vent moyen : 10 km/h
Windchill : 6.1
Pression atm. : 1039 hPa
Rafales max : 11 km/h
Cumul de pluie sur 24H : 0.2 mm

Chailles est une commune du département Loir-et-Cher (41).
La station météorologique du réseau de l'association la plus proche de Chailles est celle de Tour-en-Sologne
Site du propriétaire de la station : http://jmj41.com/meteo/



Icône Facebook Association Météo Centre Icône Twitter Association Météo Centre Icône Chaîne Youtube Association Météo Centre Icône contact Association Météo Centre Icône Insta Association Météo Centre